Weather History for KITH - July, 2015

Change the Weather History Date:

Sunday, July 26, 2015

  Actual Average Record
Temperature  
Mean Temperature 72 °F -  
Max Temperature 81 °F 79 °F 94 °F (1938)
Min Temperature 63 °F 58 °F 43 °F (1976)
Cooling Degree Days 7    
Growing Degree Days 22 (Base 50)    
Moisture  
Dew Point 65 °F    
Average Humidity 79    
Maximum Humidity 100    
Minimum Humidity 54    
Precipitation  
Precipitation 0.34 in - - ()
Sea Level Pressure  
Sea Level Pressure 29.96 in    
Wind  
Wind Speed 5 mph (NE)    
Max Wind Speed 10 mph    
Max Gust Speed -    
Visibility 8 miles    
Events Rain , Thunderstorm    
Averages and records for this station are not official NWS values.
T = Trace of Precipitation, MM = Missing Value Source: NWS Daily Summary

Daily Weather History Graph

Daily Weather History Graph

Search for Another Location

Airport or City:

Trip Planner

Search our weather history database for the weather conditions in past years. The results will help you decide how hot, cold, wet, or windy it might be!

Date:

Astronomy

Jul. 26, 2015 Rise Set
Actual Time 5:51 AM EDT 8:32 PM EDT
Civil Twilight 5:19 AM EDT 9:04 PM EDT
Nautical Twilight 4:38 AM EDT 9:45 PM EDT
Astronomical Twilight 3:51 AM EDT 10:31 PM EDT
Moon 4:04 PM EDT (7/26) 1:32 AM EDT (7/26)
Length of Visible Light 15h 45m
Length of Day
14h 40m
Waxing Gibbous, 74% of the Moon is Illuminated
Jul 26
Waxing Gibbous
Jul 31
Full
Aug 6
Last Quarter
Aug 14
New
Aug 22
First Quarter

Hourly Weather History & Observations

Time (EDT) Temp. Heat Index Dew Point Humidity Pressure Visibility Wind Dir Wind Speed Gust Speed Precip Events Conditions
12:56 AM 64.9 °F - 63.0 °F 93% 29.93 in 10.0 mi South 4.6 mph - N/A   Partly Cloudy
1:45 AM 66.2 °F - 62.6 °F 88% 29.95 in 10.0 mi South 8.1 mph - N/A Thunderstorm Mostly Cloudy
1:56 AM 66.9 °F - 61.9 °F 84% 29.92 in 10.0 mi South 8.1 mph - N/A   Scattered Clouds
2:56 AM 64.9 °F - 63.9 °F 96% 29.95 in 3.0 mi NE 4.6 mph - 0.30 in Rain Light Rain
3:56 AM 64.9 °F - 63.0 °F 93% 29.92 in 10.0 mi SE 6.9 mph - 0.04 in Rain Light Rain
4:56 AM 64.9 °F - 63.0 °F 93% 29.93 in 10.0 mi East 8.1 mph - 0.00 in   Mostly Cloudy
5:56 AM 63.9 °F - 63.0 °F 97% 29.94 in 6.0 mi East 5.8 mph - N/A   Partly Cloudy
6:26 AM 64.4 °F - 62.6 °F 94% 29.96 in 7.0 mi Calm Calm - N/A   Scattered Clouds
6:56 AM 64.9 °F - 63.9 °F 96% 29.95 in 7.0 mi Calm Calm - N/A   Scattered Clouds
7:56 AM 70.0 °F - 64.9 °F 84% 29.96 in 10.0 mi South 4.6 mph - N/A   Clear
8:56 AM 72.9 °F - 63.9 °F 73% 29.96 in 10.0 mi South 4.6 mph - N/A   Clear
9:56 AM 77.0 °F - 64.9 °F 66% 29.96 in 10.0 mi West 5.8 mph - N/A   Clear
10:56 AM 77.9 °F - 65.8 °F 66% 29.96 in 10.0 mi North 5.8 mph - N/A   Scattered Clouds
11:56 AM 77.9 °F - 66.9 °F 69% 29.97 in 7.0 mi North - - N/A   Scattered Clouds
11:58 AM 78.8 °F - 66.2 °F 65% 29.98 in 1.0 mi North - - N/A   Haze
12:07 PM 78.8 °F - 66.2 °F 65% 29.99 in 10.0 mi NNW 4.6 mph - N/A   Scattered Clouds
12:56 PM 79.0 °F - 68.9 °F 71% 29.98 in 10.0 mi NNW 10.4 mph - N/A   Scattered Clouds
1:56 PM 81.9 °F 84.8 °F 68.0 °F 63% 29.96 in 9.0 mi North 8.1 mph - N/A   Partly Cloudy
2:56 PM 81.0 °F 84.1 °F 68.9 °F 67% 29.95 in 10.0 mi NW 6.9 mph - N/A   Scattered Clouds
3:56 PM 81.0 °F 83.3 °F 66.9 °F 62% 29.95 in 10.0 mi NNW 6.9 mph - N/A   Scattered Clouds
4:56 PM 81.9 °F 83.2 °F 63.9 °F 54% 29.95 in 10.0 mi Variable 3.5 mph - N/A   Scattered Clouds
5:56 PM 79.9 °F - 63.9 °F 58% 29.97 in 10.0 mi Calm Calm - N/A   Scattered Clouds
6:56 PM 79.9 °F - 65.8 °F 62% 29.96 in 10.0 mi NW 5.8 mph - N/A   Partly Cloudy
7:56 PM 77.0 °F - 66.9 °F 71% 29.98 in 10.0 mi South 10.4 mph - N/A   Partly Cloudy
8:56 PM 68.9 °F - 65.8 °F 90% 29.98 in 10.0 mi Calm Calm - N/A   Partly Cloudy
9:56 PM 66.9 °F - 65.8 °F 96% 29.99 in 10.0 mi East 3.5 mph - N/A   Clear
10:56 PM 64.9 °F - 63.9 °F 96% 30.00 in 3.0 mi Calm Calm - N/A   Clear
11:56 PM 63.9 °F - 63.9 °F 100% 30.00 in 5.0 mi Calm Calm - N/A   Clear